Showing default

SKYSAT C8, 42990

Orbit data source: Space-Track

SKYSAT C8, 42990 is a payload satellite owned by Terra Bella (US) in SSO that was launched on Tue, 31 Oct 2017 UTC via a MINOTAUR-C 3210 launch vehicle from the Air Force Western Test Range (AFWTR). Payload-class satellites include a variety of spacecraft equipped with specific instruments for various scientific and technological missions. These include communications satellites like Starlink; space stations such as the ISS; scientific satellites like the Hubble; Earth observation satellites from companies like Planet Labs, Umbra, and HawkEye 360; GPS; miniature CubeSats for education and research; and military/defense satellites.

Loading next visibility...
Identifier
42990, 2017-068D
Orbit
SSO
Country
Flag of USUS
Related business
Manufacturer
Maxar SSL
Mission
Operational Commercial Imaging
Bus & Motor
SKYSAT-GEN2, Unknown motor
Mass
110 kg wet, 110 kg dry
Launch date (UTC)
2017-10-31 (9 years ago)
Launch vehicle
MINOTAUR-C 3210
Launch site
Air Force Western Test Range (AFWTR)
Object type
Payload
Rocket body
Debris
Shape & HBR
Box, 1.0 m
Radar Cross Section
0.888 m², Medium (>0.1 m² and < 1m²)

Expand to show TLE details & history
Last TLE update: 2 days ago

TLE from 2 days ago
0 SKYSAT C8
1 42990U 17068D   26171.32343326  .00008930  00000-0  24879-3 0  9992
2 42990  97.4530 308.0128 0001437  95.5767 264.5641 15.37027507482795
Epoch: 2026-06-20T07:45Z
TLE epoch observation values (Epoch: 2026-06-20T07:45:44.633Z)
Latitude
-0.00005°
Longitude
-76.96287°
Altitude
458.11 km
Speed
7.638 km/s
True Right ascension
20h 32m 03s
True Declination
0° 00' 00"
Sunlit
Object was in full shadow at epoch
Visualization orbit readout
Latitude
Unknown
Longitude
Unknown
Altitude
Unknown
Speed
Unknown
Apparent Right ascension
Unknown
Apparent Declination
Unknown
Sunlit
N/A
Visualization observer readout
Local Sidereal Time
21:38:31
Azimuth
Unknown
Elevation
Unknown
Doppler factor
Unknown
Orbital elements
Apogee altitude
452.832 km
Perigee altitude
450.869 km
Semi-major axis
6,829.987 km
Eccentricity
0.00014
Inclination
97.453°
RAAN
308.0128°
Arg. of periapsis
95.5767°
True anomaly
264.54771°
Mean anomaly
264.5641°
Eccentric anomaly
264.5559°
Mean motion
3.84515 °/min
Orbital period
93.62 mins
BSTAR
0.00024879
Loading maneuver chart data...
Computing Atmospheric mass density...
Loading historical data...
Loading historical data...
Loading historical data...
Loading historical data...
Loading historical data...
Loading historical data...
Loading historical data...

Documentation

Showing up to 5 results
|